• MPC Preparation (Info)

  • MPEC 2014-B56 : 2014 BT32

    The following Minor Planet Electronic Circular may be linked-to from your own Web pages, but must not otherwise be redistributed electronically.

    A form allowing access to any MPEC is at the bottom of this page.


    Read MPEC 2014-B55 Read MPEC 2014-B57


    M.P.E.C. 2014-B56                                Issued 2014 Jan. 27, 21:25 UT
    
         The Minor Planet Electronic Circulars contain information on unusual
             minor planets and routine data on comets.  They are published
       on behalf of Commission 20 of the International Astronomical Union by the
              Minor Planet Center, Smithsonian Astrophysical Observatory,
                              Cambridge, MA 02138, U.S.A.
    
                 Prepared using the Tamkin Foundation Computer Network
    
                                  MPC@CFA.HARVARD.EDU
                URL https://www.minorplanetcenter.net/    ISSN 1523-6714
    
                                       2014 BT32
    
    Observations:
         K14B32T* C2014 01 23.33361 07 49 27.71 +26 27 53.5          21.8 VqEB056G96
         K14B32T  C2014 01 23.33993 07 49 26.98 +26 28 15.5          22.1 VqEB056G96
         K14B32T  C2014 01 23.34900 07 49 25.96 +26 28 47.0          21.5 VqEB056G96
         K14B32T  C2014 01 23.35537 07 49 25.27 +26 29 09.6          21.7 VqEB056G96
         K14B32T  C2014 01 23.44825 07 49 15.44 +26 34 30.6          22.0 VqEB056G96
         K14B32T  C2014 01 23.45113 07 49 15.18 +26 34 41.1          21.4 VqEB056G96
         K14B32T  C2014 01 23.45400 07 49 14.70 +26 34 51.7          20.1 VqEB056G96
         K14B32T  C2014 01 27.11775 07 44 31.60 +29 52 30.6          21.8 VqEB056G96
         K14B32T  C2014 01 27.11859 07 44 31.54 +29 52 33.2          21.6 VqEB056G96
         K14B32T  C2014 01 27.11943 07 44 31.46 +29 52 36.0          21.7 VqEB056G96
         K14B32T  C2014 01 27.12496 07 44 31.02 +29 52 52.2          22.9 VqEB056G96
         K14B32T  C2014 01 27.12581 07 44 30.94 +29 52 55.2          21.9 VqEB056G96
         K14B32T  C2014 01 27.12666 07 44 30.87 +29 52 58.3          21.8 VqEB056G96
    
    Observer details:
    G96 Mt. Lemmon Survey.  Observers J. A. Johnson, A. R. Gibbs.  Measurers
        A. Boattini, E. J. Christensen, A. R. Gibbs, A. D. Grauer, R. E. Hill,
        J. A. Johnson, R. A. Kowalski, S. M. Larson, F. C. Shelly.  1.5-m
        reflector + CCD.
    
    Orbital elements:
    2014 BT32                                                Earth MOID = 0.0523 AU
    Epoch 2013 Nov. 4.0 TT = JDT 2456600.5                  MPC
    M  13.81177              (2000.0)            P               Q
    n   0.83237666     Peri.  267.17263     +0.89703888     -0.42239933
    a   1.1192389      Node   117.78359     +0.44085101     +0.83447132
    e   0.1429997      Incl.    8.44965     +0.03117120     +0.35388760
    P   1.18           H   25.0           G   0.15           U   9
    Residuals in seconds of arc
    140123 G96  0.2+  0.4+    140123 G96  1.0+  0.0     140127 G96  0.2+  0.5-
    140123 G96  0.1-  0.1+    140123 G96  1.6-  0.7+    140127 G96  0.1+  0.1-
    140123 G96  0.2-  0.3-    140127 G96  0.2-  0.0     140127 G96  0.2+  0.4+
    140123 G96  0.0   0.1-    140127 G96  0.1-  0.0
    140123 G96  0.6+  0.7-    140127 G96  0.2-  0.2+
    
    Ephemeris:
    2014 BT32                a,e,i = 1.12, 0.14, 8                   q = 0.9592
    Date    TT    R. A. (2000) Decl.     Delta      r     Elong.  Phase     V
    2013 12 28    08 33 48.6 -11 58 55   0.1008  1.0548   133.0    43.0    21.8
    ...
    2014 01 12    08 08 34.6 +12 08 13   0.1084  1.0894   167.2    11.6    21.1
    ...
    2014 01 20    07 54 35.5 +22 53 12   0.1245  1.1082   176.0     3.5    21.0
    ...
    2014 01 26    07 45 51.1 +28 56 25   0.1416  1.1222   165.3    12.8    21.8
    2014 01 27    07 44 36.8 +29 46 57   0.1448  1.1245   163.7    14.2    21.9
    2014 01 28    07 43 26.7 +30 34 46   0.1482  1.1268   162.1    15.6    22.0
    ...
    2014 02 03    07 38 06.1 +34 29 34   0.1701  1.1405   153.6    22.6    22.5
    ...
    2014 02 11    07 35 44.2 +37 48 42   0.2037  1.1582   144.2    29.9    23.2
    ...
    2014 02 26    07 44 20.7 +40 16 55   0.2764  1.1893   130.8    39.1    24.1
    
    A. U. Tomatic                (C) Copyright 2014 MPC           M.P.E.C. 2014-B56
    

    Read MPEC 2014-B55 Read MPEC 2014-B57


    MPEC number:

    Enter an MPEC number in one of the following forms:

    • 1997-B01 (the full form)
    • J97B01 (the packed version of the full form)
    • B01 (the abbreviated form)